Altus AFB, OK

8:57 AM CDT on October 21, 2019 (GMT -0500)
Altus Air Force Base

Weather History for KLTS - August, 2019

Change the Weather History Date:

Wednesday, August 21, 2019

  Actual Average Record
Temperature  
Mean Temperature 84 °F -  
Max Temperature 99 °F 94 °F 107 °F (2011)
Min Temperature 70 °F 70 °F 61 °F (2016)
Cooling Degree Days 19    
Growing Degree Days 34 (Base 50)    
Moisture  
Dew Point 64 °F    
Average Humidity 54    
Maximum Humidity 86    
Minimum Humidity 27    
Precipitation  
Precipitation 0.00 in - - ()
Sea Level Pressure  
Sea Level Pressure 29.91 in    
Wind  
Wind Speed 6 mph ()    
Max Wind Speed 15 mph    
Max Gust Speed -    
Visibility 10.0 miles    
Events      
Averages and records for this station are not official NWS values.
T = Trace of Precipitation, MM = Missing Value Source: Averaged Metar Reports

Daily Weather History Graph

Daily Weather History Graph

Search for Another Location

Airport or City:

Astronomy

Aug. 21, 2019 Rise Set
Actual Time 7:01 AM CDT 8:17 PM CDT
Civil Twilight 6:35 AM CDT 8:44 PM CDT
Nautical Twilight 6:04 AM CDT 9:15 PM CDT
Astronomical Twilight 5:31 AM CDT 9:48 PM CDT
Moon 11:50 PM CDT 12:25 PM CDT
Length of Visible Light 14h 08m
Length of Day
13h 15m
Waning Gibbous, 69% of the Moon is Illuminated
Aug 21
Waning Gibbous
Aug 23
Last Quarter
Aug 30
New
Sep 5
First Quarter
Sep 13
Full

Hourly Weather History & Observations

Time (CDT) Temp. Heat Index Dew Point Humidity Pressure Visibility Wind Dir Wind Speed Gust Speed Precip Events Conditions
12:56 AM 77.0 °F - 65.7 °F 68% 29.95 in 10.0 mi SE 8.1 mph - N/A   Clear
1:56 AM 75.7 °F - 65.7 °F 71% 30.00 in 10.0 mi SE 8.1 mph - N/A   Clear
2:56 AM 72.9 °F - 65.8 °F 79% 29.94 in 10.0 mi SE 3.5 mph - N/A   Clear
3:56 AM 73.6 °F - 65.8 °F 77% 29.93 in 10.0 mi Calm Calm - N/A   Clear
4:56 AM 72.0 °F - 66.2 °F 82% 29.92 in 10.0 mi SSE 4.6 mph - N/A   Clear
5:56 AM 70.9 °F - 66.4 °F 86% 29.93 in 10.0 mi ESE 4.6 mph - N/A   Clear
6:56 AM 71.2 °F - 66.2 °F 84% 29.95 in 10.0 mi South 4.6 mph - N/A   Clear
7:56 AM 72.9 °F - 66.9 °F 82% 29.96 in 10.0 mi Calm Calm - N/A   Partly Cloudy
8:56 AM 79.9 °F - 66.9 °F 64% 29.97 in 10.0 mi South 5.8 mph - N/A   Clear
9:56 AM 86.5 °F 88.4 °F 65.1 °F 49% 29.97 in 10.0 mi SSW 9.2 mph - N/A   Clear
10:56 AM 90.7 °F 92.4 °F 64.4 °F 42% 29.97 in 10.0 mi SW 5.8 mph - N/A   Partly Cloudy
11:56 AM 93.6 °F 94.2 °F 61.7 °F 35% 29.96 in 10.0 mi SW 6.9 mph - N/A   Scattered Clouds
12:56 PM 95.9 °F 97.5 °F 63.0 °F 34% 29.94 in 10.0 mi South 10.4 mph - N/A   Scattered Clouds
1:56 PM 96.4 °F 97.9 °F 63.3 °F 33% 29.92 in 10.0 mi SSE 10.4 mph - N/A   Mostly Cloudy
2:35 PM 98.6 °F 98.5 °F 59.0 °F 27% 29.90 in 10.0 mi SSW 11.5 mph - N/A   Mostly Cloudy
2:56 PM 98.1 °F 98.1 °F 59.4 °F 28% 29.90 in 10.0 mi South 11.5 mph - N/A   Mostly Cloudy
3:56 PM 98.6 °F 98.5 °F 59.7 °F 27% 29.88 in 10.0 mi SSE 11.5 mph - N/A   Scattered Clouds
4:56 PM 98.2 °F 99.9 °F 62.4 °F 31% 29.85 in 10.0 mi SSE 15.0 mph - N/A   Scattered Clouds
5:56 PM 96.8 °F 98.0 °F 62.1 °F 32% 29.83 in 10.0 mi SSE 12.7 mph - N/A   Clear
6:56 PM 94.3 °F 95.8 °F 63.9 °F 36% 29.81 in 10.0 mi SE 8.1 mph - N/A   Clear
7:56 PM 88.5 °F 90.8 °F 66.2 °F 47% 29.87 in 10.0 mi SE 6.9 mph - N/A   Clear
8:56 PM 81.9 °F 83.7 °F 65.1 °F 57% 29.88 in 10.0 mi SSE 9.2 mph - N/A   Clear
9:56 PM 79.2 °F - 63.5 °F 59% 29.85 in 10.0 mi SSE 8.1 mph - N/A   Clear
10:56 PM 79.7 °F - 63.5 °F 58% 29.87 in 10.0 mi SSE 6.9 mph - N/A   Partly Cloudy
11:56 PM 79.2 °F - 64.9 °F 62% 29.88 in 10.0 mi SSE 10.4 mph - N/A   Partly Cloudy